When you browse on this site, cookies collect data to enhance your experience and personalize the content and advertising you see.
Visit our Privacy Policy to learn more. By continuing to use the site, you agree to this use of cookies and data.
  • In Hungary
  • List of Countries
  • For 7 days
  • Water Temperature
  • Satellite Maps
  • Weather Map
  • News
  • Weather Widgets
  • user-avatar
    Login

    Hourly Weather Hamburg

    Today, 18 April, Thursday

    Time Temperature Precipitation Wind Pressure Humidity
    00:00 +8°C° 0 mm 3 mps 771 mmHg 74%
    01:00 +7°C° 0 mm 3 mps 771 mmHg 75%
    02:00 +7°C° 0 mm 3 mps 771 mmHg 74%
    03:00 +5°C° 0 mm 3 mps 771 mmHg 74%
    04:00 +5°C° 0 mm 3 mps 771 mmHg 74%
    05:00 +7°C° 0 mm 3 mps 772 mmHg 72%
    06:00 +7°C° 0 mm 3 mps 772 mmHg 71%
    07:00 +8°C° 0 mm 2 mps 772 mmHg 67%
    08:00 +10°C° 0 mm 3 mps 772 mmHg 62%
    09:00 +12°C° 0 mm 3 mps 773 mmHg 58%
    10:00 +16°C° 0 mm 3 mps 773 mmHg 53%
    11:00 +17°C° 0 mm 4 mps 773 mmHg 49%
    12:00 +19°C° 0 mm 4 mps 773 mmHg 45%
    13:00 +20°C° 0 mm 5 mps 772 mmHg 41%
    14:00 +20°C° 0 mm 5 mps 772 mmHg 42%
    15:00 +20°C° 0 mm 5 mps 772 mmHg 44%
    16:00 +20°C° 0 mm 5 mps 772 mmHg 45%
    17:00 +17°C° 0 mm 5 mps 772 mmHg 52%
    18:00 +17°C° 0 mm 4 mps 772 mmHg 59%
    19:00 +14°C° 0 mm 4 mps 772 mmHg 65%
    20:00 +13°C° 0 mm 4 mps 773 mmHg 67%
    21:00 +12°C° 0 mm 4 mps 773 mmHg 70%
    22:00 +10°C° 0 mm 4 mps 774 mmHg 72%
    23:00 +10°C° 0 mm 3 mps 774 mmHg 72%

    Tomorrow, 19 April, Friday

    Time Temperature Precipitation Wind Pressure Humidity
    00:00 +9°C° 0 mm 3 mps 774 mmHg 73%
    01:00 +8°C° 0 mm 3 mps 774 mmHg 73%
    02:00 +8°C° 0 mm 3 mps 774 mmHg 74%
    03:00 +7°C° 0 mm 3 mps 774 mmHg 74%
    04:00 +7°C° 0 mm 2 mps 774 mmHg 75%
    05:00 +8°C° 0 mm 2 mps 774 mmHg 73%
    06:00 +9°C° 0 mm 3 mps 774 mmHg 70%
    07:00 +10°C° 0 mm 3 mps 775 mmHg 68%
    08:00 +12°C° 0 mm 3 mps 775 mmHg 62%
    09:00 +16°C° 0 mm 3 mps 775 mmHg 56%
    10:00 +18°C° 0 mm 3 mps 775 mmHg 50%
    11:00 +19°C° 0 mm 3 mps 775 mmHg 47%
    12:00 +20°C° 0 mm 4 mps 775 mmHg 43%
    13:00 +21°C° 0 mm 4 mps 775 mmHg 40%
    14:00 +21°C° 0 mm 4 mps 774 mmHg 41%
    15:00 +21°C° 0 mm 4 mps 774 mmHg 42%
    16:00 +21°C° 0 mm 4 mps 774 mmHg 43%
    17:00 +20°C° 0 mm 4 mps 774 mmHg 51%
    18:00 +18°C° 0 mm 4 mps 774 mmHg 59%
    19:00 +16°C° 0 mm 3 mps 774 mmHg 66%
    20:00 +14°C° 0 mm 3 mps 774 mmHg 67%
    21:00 +12°C° 0 mm 3 mps 775 mmHg 68%
    22:00 +11°C° 0 mm 3 mps 775 mmHg 68%
    23:00 +10°C° 0 mm 3 mps 775 mmHg 64%

    Day after tomorrow, 20 April, Saturday

    Time Temperature Precipitation Wind Pressure Humidity
    00:00 +9°C° 0 mm 2 mps 775 mmHg 60%
    01:00 +8°C° 0 mm 2 mps 775 mmHg 57%
    02:00 +8°C° 0 mm 2 mps 775 mmHg 54%
    03:00 +7°C° 0 mm 2 mps 775 mmHg 52%
    04:00 +6°C° 0 mm 2 mps 774 mmHg 50%
    05:00 +7°C° 0 mm 2 mps 774 mmHg 49%
    06:00 +7°C° 0 mm 2 mps 774 mmHg 49%
    07:00 +8°C° 0 mm 2 mps 774 mmHg 49%
    08:00 +10°C° 0 mm 2 mps 774 mmHg 45%
    09:00 +13°C° 0 mm 2 mps 774 mmHg 41%
    10:00 +16°C° 0 mm 3 mps 774 mmHg 37%
    11:00 +17°C° 0 mm 3 mps 774 mmHg 35%
    12:00 +18°C° 0 mm 3 mps 774 mmHg 33%
    13:00 +19°C° 0 mm 3 mps 773 mmHg 31%
    14:00 +18°C° 0 mm 3 mps 773 mmHg 33%
    15:00 +18°C° 0 mm 3 mps 772 mmHg 34%
    16:00 +18°C° 0 mm 4 mps 772 mmHg 35%
    17:00 +16°C° 0 mm 3 mps 772 mmHg 42%
    18:00 +13°C° 0 mm 3 mps 772 mmHg 49%
    19:00 +11°C° 0 mm 3 mps 771 mmHg 56%
    20:00 +9°C° 0 mm 2 mps 771 mmHg 58%
    21:00 +8°C° 0 mm 2 mps 771 mmHg 59%
    22:00 +6°C° 0 mm 2 mps 772 mmHg 61%
    23:00 +6°C° 0 mm 2 mps 771 mmHg 61%

    21 April, Sunday

    Time Temperature Precipitation Wind Pressure Humidity
    00:00 +5°C° 0 mm 2 mps 771 mmHg 61%
    01:00 +5°C° 0 mm 2 mps 771 mmHg 61%
    02:00 +5°C° 0 mm 1 mps 771 mmHg 62%
    03:00 +5°C° 0 mm 1 mps 770 mmHg 63%
    04:00 +5°C° 0 mm 1 mps 770 mmHg 64%
    05:00 +6°C° 0 mm 1 mps 770 mmHg 63%
    06:00 +7°C° 0 mm 1 mps 769 mmHg 62%
    07:00 +8°C° 0 mm 1 mps 769 mmHg 61%
    08:00 +10°C° 0 mm 1 mps 769 mmHg 56%
    09:00 +13°C° 0 mm 2 mps 769 mmHg 51%
    10:00 +16°C° 0 mm 2 mps 768 mmHg 46%
    11:00 +17°C° 0 mm 2 mps 768 mmHg 43%
    12:00 +18°C° 0 mm 2 mps 768 mmHg 41%
    13:00 +20°C° 0 mm 2 mps 767 mmHg 38%
    14:00 +20°C° 0 mm 2 mps 767 mmHg 38%
    15:00 +20°C° 0 mm 2 mps 766 mmHg 39%
    16:00 +20°C° 0 mm 2 mps 765 mmHg 39%
    17:00 +18°C° 0 mm 2 mps 765 mmHg 47%
    18:00 +17°C° 0 mm 3 mps 765 mmHg 56%
    19:00 +14°C° 0 mm 3 mps 765 mmHg 64%
    20:00 +12°C° 0 mm 3 mps 765 mmHg 67%
    21:00 +11°C° 0 mm 3 mps 765 mmHg 71%
    22:00 +9°C° 0 mm 2 mps 765 mmHg 74%
    23:00 +9°C° 0 mm 2 mps 765 mmHg 77%

    22 April, Monday

    Time Temperature Precipitation Wind Pressure Humidity
    00:00 +8°C° 0 mm 2 mps 764 mmHg 79%
    01:00 +7°C° 0 mm 2 mps 764 mmHg 82%
    02:00 +7°C° 0 mm 2 mps 764 mmHg 83%
    03:00 +7°C° 0 mm 2 mps 763 mmHg 83%
    04:00 +7°C° 0 mm 2 mps 763 mmHg 83%
    05:00 +8°C° 0 mm 2 mps 763 mmHg 77%
    06:00 +8°C° 0 mm 3 mps 763 mmHg 70%
    07:00 +9°C° 0 mm 3 mps 763 mmHg 64%
    08:00 +11°C° 0 mm 3 mps 763 mmHg 58%
    09:00 +13°C° 0 mm 4 mps 763 mmHg 52%
    10:00 +15°C° 0 mm 4 mps 763 mmHg 45%
    11:00 +17°C° 0 mm 4 mps 762 mmHg 43%
    12:00 +17°C° 0 mm 5 mps 762 mmHg 40%
    13:00 +19°C° 0 mm 5 mps 762 mmHg 37%
    14:00 +19°C° 0 mm 5 mps 761 mmHg 40%
    15:00 +17°C° 0 mm 6 mps 761 mmHg 42%
    16:00 +17°C° 0 mm 6 mps 761 mmHg 45%
    17:00 +15°C° 0 mm 6 mps 761 mmHg 51%
    18:00 +14°C° 0 mm 5 mps 761 mmHg 56%
    19:00 +12°C° 0 mm 5 mps 761 mmHg 62%
    20:00 +10°C° 0 mm 5 mps 761 mmHg 68%
    21:00 +10°C° 0 mm 4 mps 761 mmHg 73%
    22:00 +8°C° 0 mm 4 mps 761 mmHg 79%
    23:00 +7°C° 0 mm 4 mps 760 mmHg 80%

    23 April, Tuesday

    Time Temperature Precipitation Wind Pressure Humidity
    00:00 +6°C° 0 mm 4 mps 760 mmHg 81%
    01:00 +7°C° 0 mm 3 mps 760 mmHg 82%
    02:00 +5°C° 0 mm 3 mps 759 mmHg 85%
    03:00 +5°C° 0 mm 3 mps 759 mmHg 88%
    04:00 +5°C° 0 mm 3 mps 759 mmHg 91%
    05:00 +7°C° 0 mm 3 mps 758 mmHg 88%
    06:00 +7°C° 0 mm 4 mps 758 mmHg 84%
    07:00 +8°C° 0 mm 4 mps 757 mmHg 81%
    08:00 +10°C° 0 mm 4 mps 757 mmHg 77%
    09:00 +12°C° 0 mm 4 mps 756 mmHg 73%
    10:00 +13°C° 0 mm 4 mps 756 mmHg 69%
    11:00 +12°C° 0.1 mm 4 mps 756 mmHg 72%
    12:00 +12°C° 0.1 mm 3 mps 755 mmHg 74%
    13:00 +12°C° 0.1 mm 2 mps 755 mmHg 77%
    14:00 +13°C° 0 mm 2 mps 754 mmHg 73%
    15:00 +14°C° 0 mm 2 mps 754 mmHg 70%
    16:00 +14°C° 0 mm 1 mps 754 mmHg 67%
    17:00 +13°C° 0 mm 1 mps 754 mmHg 71%
    18:00 +13°C° 0 mm 1 mps 754 mmHg 75%
    19:00 +12°C° 0 mm 1 mps 754 mmHg 78%
    20:00 +10°C° 0 mm 1 mps 754 mmHg 84%
    21:00 +9°C° 0 mm 1 mps 755 mmHg 89%
    22:00 +8°C° 0 mm 1 mps 755 mmHg 94%
    23:00 +7°C° 0 mm 1 mps 755 mmHg 95%
    Show more